When you browse on this site, cookies collect data to enhance your experience and personalize the content and advertising you see.
Visit our Privacy Policy to learn more. By continuing to use the site, you agree to this use of cookies and data.
  • In Lithuania
  • List of Countries
  • For 7 days
  • Water Temperature
  • Satellite Maps
  • Weather Map
  • Weather Widgets
  • user-avatar
    Login

    Hourly Weather Ischgl

    Today, 19 July, Friday

    Time Temperature Precipitation Wind Pressure Humidity
    00:00 +4°C° 0 mm 0 mps 574 mmHg 88%
    01:00 +4°C° 0 mm 0 mps 574 mmHg 88%
    02:00 +4°C° 0 mm 0 mps 574 mmHg 88%
    03:00 +4°C° 0 mm 0 mps 574 mmHg 88%
    04:00 +4°C° 0 mm 0 mps 574 mmHg 88%
    05:00 +5°C° 0 mm 0 mps 575 mmHg 83%
    06:00 +7°C° 0 mm 0 mps 576 mmHg 77%
    07:00 +8°C° 0 mm 0 mps 577 mmHg 72%
    08:00 +10°C° 0 mm 0 mps 578 mmHg 65%
    09:00 +11°C° 0 mm 0 mps 579 mmHg 57%
    10:00 +13°C° 0 mm 0 mps 579 mmHg 49%
    11:00 +15°C° 0 mm 1 mps 580 mmHg 46%
    12:00 +16°C° 0 mm 1 mps 580 mmHg 44%
    13:00 +18°C° 0 mm 1 mps 581 mmHg 41%
    14:00 +18°C° 0.1 mm 1 mps 581 mmHg 43%
    15:00 +18°C° 0.1 mm 1 mps 580 mmHg 45%
    16:00 +16°C° 0.1 mm 2 mps 580 mmHg 48%
    17:00 +15°C° 0.4 mm 1 mps 580 mmHg 59%
    18:00 +14°C° 0.4 mm 1 mps 579 mmHg 70%
    19:00 +12°C° 0.4 mm 1 mps 579 mmHg 82%
    20:00 +11°C° 0.1 mm 1 mps 578 mmHg 86%
    21:00 +8°C° 0.1 mm 0 mps 577 mmHg 90%
    22:00 +6°C° 0.1 mm 0 mps 577 mmHg 94%
    23:00 +6°C° 0 mm 0 mps 577 mmHg 93%

    Tomorrow, 20 July, Saturday

    Time Temperature Precipitation Wind Pressure Humidity
    00:00 +7°C° 0 mm 1 mps 577 mmHg 93%
    01:00 +7°C° 0 mm 1 mps 577 mmHg 92%
    02:00 +7°C° 0 mm 1 mps 576 mmHg 92%
    03:00 +6°C° 0 mm 1 mps 576 mmHg 92%
    04:00 +6°C° 0 mm 1 mps 576 mmHg 92%
    05:00 +8°C° 0 mm 1 mps 577 mmHg 89%
    06:00 +8°C° 0 mm 2 mps 578 mmHg 85%
    07:00 +10°C° 0 mm 2 mps 579 mmHg 82%
    08:00 +13°C° 0 mm 1 mps 580 mmHg 73%
    09:00 +14°C° 0 mm 1 mps 580 mmHg 64%
    10:00 +16°C° 0 mm 1 mps 581 mmHg 55%
    11:00 +18°C° 0.2 mm 1 mps 581 mmHg 54%
    12:00 +18°C° 0.2 mm 1 mps 582 mmHg 52%
    13:00 +19°C° 0.2 mm 1 mps 582 mmHg 51%
    14:00 +18°C° 1.7 mm 1 mps 581 mmHg 58%
    15:00 +16°C° 1.7 mm 1 mps 581 mmHg 65%
    16:00 +15°C° 1.7 mm 1 mps 580 mmHg 72%
    17:00 +14°C° 1.5 mm 1 mps 580 mmHg 76%
    18:00 +14°C° 1.5 mm 1 mps 580 mmHg 79%
    19:00 +12°C° 1.5 mm 0 mps 580 mmHg 83%
    20:00 +11°C° 0.1 mm 0 mps 580 mmHg 84%
    21:00 +9°C° 0.1 mm 0 mps 579 mmHg 84%
    22:00 +8°C° 0.1 mm 0 mps 579 mmHg 85%
    23:00 +9°C° 0 mm 1 mps 579 mmHg 85%

    Day after tomorrow, 21 July, Sunday

    Time Temperature Precipitation Wind Pressure Humidity
    00:00 +9°C° 0 mm 1 mps 579 mmHg 86%
    01:00 +9°C° 0 mm 1 mps 579 mmHg 86%
    02:00 +8°C° 0 mm 1 mps 579 mmHg 86%
    03:00 +8°C° 0 mm 1 mps 579 mmHg 86%
    04:00 +8°C° 0 mm 1 mps 578 mmHg 86%
    05:00 +9°C° 0 mm 1 mps 579 mmHg 82%
    06:00 +11°C° 0 mm 1 mps 580 mmHg 78%
    07:00 +13°C° 0 mm 1 mps 581 mmHg 74%
    08:00 +14°C° 0.1 mm 1 mps 582 mmHg 69%
    09:00 +15°C° 0.1 mm 1 mps 583 mmHg 64%
    10:00 +18°C° 0.1 mm 1 mps 584 mmHg 59%
    11:00 +17°C° 0.3 mm 2 mps 584 mmHg 57%
    12:00 +18°C° 0.3 mm 2 mps 584 mmHg 55%
    13:00 +18°C° 0.3 mm 2 mps 585 mmHg 52%
    14:00 +18°C° 0.3 mm 2 mps 585 mmHg 51%
    15:00 +18°C° 0.3 mm 2 mps 584 mmHg 50%
    16:00 +18°C° 0.3 mm 2 mps 584 mmHg 49%
    17:00 +17°C° 0.1 mm 2 mps 584 mmHg 56%
    18:00 +16°C° 0.1 mm 2 mps 584 mmHg 62%
    19:00 +15°C° 0.1 mm 1 mps 583 mmHg 69%
    20:00 +13°C° 0 mm 1 mps 582 mmHg 75%
    21:00 +11°C° 0 mm 1 mps 582 mmHg 81%
    22:00 +8°C° 0 mm 0 mps 581 mmHg 87%
    23:00 +8°C° 0 mm 0 mps 581 mmHg 86%

    22 July, Monday

    Time Temperature Precipitation Wind Pressure Humidity
    00:00 +8°C° 0 mm 0 mps 581 mmHg 86%
    01:00 +7°C° 0 mm 0 mps 581 mmHg 85%
    02:00 +7°C° 0 mm 0 mps 581 mmHg 84%
    03:00 +7°C° 0 mm 0 mps 580 mmHg 83%
    04:00 +7°C° 0 mm 0 mps 580 mmHg 82%
    05:00 +9°C° 0 mm 0 mps 582 mmHg 76%
    06:00 +11°C° 0 mm 0 mps 583 mmHg 70%
    07:00 +13°C° 0 mm 0 mps 584 mmHg 63%
    08:00 +15°C° 0 mm 0 mps 585 mmHg 59%
    09:00 +18°C° 0 mm 1 mps 585 mmHg 54%
    10:00 +20°C° 0 mm 1 mps 586 mmHg 49%
    11:00 +20°C° 0 mm 1 mps 586 mmHg 47%
    12:00 +21°C° 0 mm 1 mps 586 mmHg 44%
    13:00 +20°C° 0 mm 2 mps 587 mmHg 42%
    14:00 +20°C° 0 mm 2 mps 586 mmHg 43%
    15:00 +20°C° 0 mm 2 mps 586 mmHg 45%
    16:00 +20°C° 0 mm 2 mps 586 mmHg 46%
    17:00 +19°C° 0 mm 2 mps 586 mmHg 54%
    18:00 +17°C° 0 mm 2 mps 585 mmHg 63%
    19:00 +16°C° 0 mm 2 mps 584 mmHg 71%
    20:00 +14°C° 0 mm 1 mps 584 mmHg 77%
    21:00 +12°C° 0 mm 1 mps 583 mmHg 84%
    22:00 +9°C° 0 mm 0 mps 582 mmHg 91%
    23:00 +9°C° 0 mm 0 mps 582 mmHg 91%

    23 July, Tuesday

    Time Temperature Precipitation Wind Pressure Humidity
    00:00 +8°C° 0 mm 0 mps 581 mmHg 90%
    01:00 +8°C° 0 mm 0 mps 581 mmHg 90%
    02:00 +8°C° 0 mm 0 mps 581 mmHg 89%
    03:00 +8°C° 0 mm 0 mps 580 mmHg 89%
    04:00 +8°C° 0 mm 1 mps 580 mmHg 88%
    05:00 +9°C° 0 mm 0 mps 581 mmHg 81%
    06:00 +11°C° 0 mm 0 mps 582 mmHg 74%
    07:00 +14°C° 0 mm 0 mps 583 mmHg 67%
    08:00 +15°C° 0 mm 0 mps 584 mmHg 57%
    09:00 +19°C° 0 mm 1 mps 585 mmHg 48%
    10:00 +21°C° 0 mm 1 mps 586 mmHg 38%
    11:00 +22°C° 0 mm 1 mps 586 mmHg 36%
    12:00 +22°C° 0 mm 1 mps 586 mmHg 34%
    13:00 +23°C° 0 mm 1 mps 586 mmHg 33%
    14:00 +23°C° 0 mm 2 mps 586 mmHg 34%
    15:00 +23°C° 0 mm 2 mps 585 mmHg 35%
    16:00 +23°C° 0 mm 2 mps 585 mmHg 36%
    17:00 +21°C° 0 mm 2 mps 585 mmHg 46%
    18:00 +19°C° 0 mm 2 mps 584 mmHg 57%
    19:00 +19°C° 0 mm 1 mps 583 mmHg 67%
    20:00 +16°C° 0 mm 1 mps 582 mmHg 74%
    21:00 +13°C° 0 mm 0 mps 581 mmHg 80%
    22:00 +11°C° 0 mm 0 mps 581 mmHg 86%
    23:00 +11°C° 0 mm 0 mps 580 mmHg 86%

    24 July, Wednesday

    Time Temperature Precipitation Wind Pressure Humidity
    00:00 +10°C° 0 mm 0 mps 580 mmHg 87%
    01:00 +10°C° 0 mm 0 mps 580 mmHg 87%
    02:00 +10°C° 0 mm 0 mps 580 mmHg 87%
    03:00 +9°C° 0 mm 0 mps 579 mmHg 87%
    04:00 +9°C° 0 mm 0 mps 579 mmHg 87%
    05:00 +11°C° 0 mm 0 mps 580 mmHg 81%
    06:00 +13°C° 0 mm 0 mps 581 mmHg 74%
    07:00 +15°C° 0 mm 0 mps 582 mmHg 67%
    08:00 +18°C° 0 mm 1 mps 583 mmHg 58%
    09:00 +20°C° 0 mm 1 mps 584 mmHg 48%
    10:00 +21°C° 0 mm 1 mps 584 mmHg 39%
    11:00 +21°C° 0 mm 2 mps 584 mmHg 36%
    12:00 +23°C° 0 mm 2 mps 584 mmHg 34%
    13:00 +23°C° 0 mm 2 mps 585 mmHg 31%
    14:00 +23°C° 0 mm 2 mps 585 mmHg 32%
    15:00 +23°C° 0 mm 2 mps 584 mmHg 33%
    16:00 +23°C° 0 mm 2 mps 584 mmHg 35%
    17:00 +21°C° 0 mm 2 mps 584 mmHg 45%
    18:00 +19°C° 0 mm 2 mps 583 mmHg 55%
    19:00 +19°C° 0 mm 1 mps 582 mmHg 65%
    20:00 +16°C° 0 mm 1 mps 582 mmHg 71%
    21:00 +14°C° 0 mm 1 mps 581 mmHg 77%
    22:00 +11°C° 0 mm 0 mps 580 mmHg 83%
    23:00 +11°C° 0 mm 0 mps 580 mmHg 84%
    Show more